This is the latest recevied weather packets stored in our database for station/object N5YHM-13. If no packets are shown the sender has not sent any weather packets the latest 1 day(s).
| Time | Temp. | Humidity | Pressure | Rain* | Wind** | Luminosity | Snow |
|---|---|---|---|---|---|---|---|
| 1778018008 | 26.67° C | 73% | 1013.5 hPa | 0 mm | 0 m/s | 13 W/m² | - |
| 1778017706 | 26.67° C | 72% | 1013.5 hPa | 0 mm | 0 m/s | 8 W/m² | - |
| 1778017403 | 26.67° C | 71% | 1013.8 hPa | 0 mm | 0 m/s | 13 W/m² | - |
| 1778017100 | 26.67° C | 71% | 1013.5 hPa | 0 mm | 0 m/s | 18 W/m² | - |
| 1778016798 | 26.67° C | 70% | 1013.4 hPa | 0 mm | 0.45 m/s, 228° | 13 W/m² | - |
| 1778016493 | 26.67° C | 70% | 1013.7 hPa | 0 mm | 0.45 m/s, 214° | 8 W/m² | - |
| 1778016191 | 26.67° C | 69% | 1013.4 hPa | 0 mm | 0 m/s | 7 W/m² | - |
| 1778015887 | 27.22° C | 69% | 1013.5 hPa | 0 mm | 0.89 m/s, 222° | 12 W/m² | - |
| 1778015585 | 27.22° C | 68% | 1013.6 hPa | 0 mm | 0 m/s | 14 W/m² | - |
| 1778015281 | 27.22° C | 68% | 1013.6 hPa | 0 mm | 0 m/s | 19 W/m² | - |
| 1778014978 | 27.22° C | 67% | 1013.6 hPa | 0 mm | 0 m/s | 20 W/m² | - |
| 1778014675 | 27.78° C | 65% | 1013.4 hPa | 0 mm | 0 m/s | 21 W/m² | - |
| 1778014373 | 27.78° C | 66% | 1013.7 hPa | 0 mm | 0 m/s | 23 W/m² | - |
| 1778014069 | 27.78° C | 67% | 1013.7 hPa | 0 mm | 0 m/s | 31 W/m² | - |
| 1778013767 | 27.78° C | 64% | 1013.8 hPa | 0 mm | 0 m/s | 49 W/m² | - |
| 1778013464 | 27.78° C | 65% | 1013.8 hPa | 0 mm | 0 m/s | 38 W/m² | - |
| 1778013161 | 27.78° C | 64% | 1013.8 hPa | 0 mm | 0 m/s | 52 W/m² | - |
| 1778012857 | 27.78° C | 63% | 1014 hPa | 0 mm | 0.89 m/s, 186° | 42 W/m² | - |
| 1778012553 | 27.78° C | 63% | 1013.9 hPa | 0 mm | 1.34 m/s, 190° | 58 W/m² | - |
| 1778012250 | 27.78° C | 62% | 1013.9 hPa | 0 mm | 0 m/s | 43 W/m² | - |
| 1778011948 | 27.78° C | 62% | 1014.1 hPa | 0 mm | 0 m/s | 41 W/m² | - |
| 1778011646 | 27.78° C | 66% | 1014.1 hPa | 0 mm | 0 m/s | 30 W/m² | - |
| 1778011342 | 27.78° C | 66% | 1014 hPa | 0 mm | 0 m/s | 35 W/m² | - |
| 1778011038 | 27.78° C | 64% | 1013.9 hPa | 0 mm | 0 m/s | 32 W/m² | - |
| 1778010736 | 27.78° C | 64% | 1013.9 hPa | 0 mm | 0.89 m/s, 217° | 193 W/m² | - |
* Rain latest hour (hover to see other rain measurements)
** Current wind speed in m/s (hover to see current wind gust speed)